RH
34 27 30 33 29 24 22 23 23 26 31 37 45 49 50 56 59 54 61 68 57 50 49 46 45 52 59 53 46 47 50 50 48 35 36 48 37 31 30 25 27 25 27 27 31 38 48 62 66 65 64 64 66 68 69 70 71 71 73 72 73 73 74 75 73 74 77 77 79 79 80 84 83 85 89 87 87 88 90 91 87 87 86 85 87 92 91 90 91 91 95 97 93 93 96 95 97
32 23 23 26 23 24 24 24 24 26 29 34 43 47 49 55 57 54 58 64 54 47 45 40 40 46 50 46 45 47 48 48 49 41 36 41 40 37 27 24 27 24 26 25 28 34 42 58 65 64 62 61 63 66 66 68 69 68 71 72 72 71 73 75 73 74 75 75 78 79 79 81 81 82 85 85 86 89 92 89 84 85 85 85 83 84 90 91 88 88 90 94 96 92 92 92 94
31 26 26 24 19 22 22 21 21 23 23 29 39 43 50 50 48 53 60 60 48 44 44 38 38 44 49 51 48 45 44 41 37 33 28 33 39 33 25 26 26 25 26 23 26 31 41 57 63 62 61 59 61 63 64 65 66 65 68 71 73 71 72 75 74 74 74 74 77 78 79 79 80 79 82 83 84 88 91 89 85 82 84 88 86 82 84 86 86 88 88 90 94 93 92 93 95
30 29 28 24 18 20 21 21 22 22 22 29 37 40 47 44 45 57 63 56 43 44 49 43 38 38 43 48 46 41 39 37 30 28 25 27 32 27 26 26 25 26 24 24 24 29 42 56 59 60 60 59 60 62 62 64 65 64 67 69 72 71 72 76 74 75 74 75 76 77 79 79 78 76 80 83 82 85 88 88 87 84 86 88 87 88 84 84 87 84 81 87 92 91 91 93 96
23 22 21 19 17 20 23 24 24 23 24 29 31 36 42 41 51 59 56 52 45 46 52 48 42 38 37 37 39 37 34 36 31 29 27 25 28 26 25 25 25 25 23 24 22 27 41 53 56 56 58 58 58 59 59 62 63 61 64 67 70 71 71 75 75 75 75 76 77 76 78 77 76 73 76 82 81 84 86 85 85 85 88 88 88 93 91 87 88 79 74 81 87 89 90 90 94
18 16 16 18 21 23 22 20 22 23 28 30 28 35 40 42 54 56 49 50 47 44 49 50 45 41 37 29 30 34 31 33 31 29 28 24 25 24 24 25 25 23 23 23 22 25 31 41 52 55 56 56 55 55 56 58 60 59 62 65 67 70 71 75 76 75 75 76 77 77 78 76 73 71 75 80 81 84 84 83 85 85 85 89 90 93 93 91 91 82 76 76 80 87 91 89 89
19 18 18 19 22 23 20 19 22 24 29 32 30 35 40 44 51 52 48 48 45 42 46 48 42 37 35 29 26 30 28 29 28 26 28 24 24 24 24 25 24 23 23 22 22 23 21 26 42 54 53 52 50 49 51 53 57 57 60 64 65 68 70 74 77 75 75 75 77 79 77 75 71 70 75 79 80 83 84 83 84 86 84 86 91 93 92 93 94 89 85 82 78 79 85 88 87
16 20 23 19 21 24 23 23 26 27 31 33 33 37 42 47 49 49 47 42 38 36 40 42 38 33 34 35 26 26 27 28 28 25 26 25 24 24 24 24 24 23 23 23 22 21 21 20 30 46 50 47 46 45 47 49 54 55 57 62 63 66 68 73 76 75 74 74 77 78 74 72 70 70 75 78 81 81 83 85 82 85 84 84 90 91 92 93 95 95 92 90 86 82 79 81 88
14 19 22 19 20 24 25 26 28 28 31 32 35 41 45 49 48 45 41 35 33 31 31 34 37 33 33 37 29 25 26 28 30 27 25 25 24 24 24 24 23 24 23 23 22 20 21 20 21 30 35 35 36 39 44 46 50 53 54 57 60 62 65 70 73 72 71 71 74 76 72 69 68 71 74 74 81 82 81 84 79 83 84 86 91 89 92 93 94 95 94 92 91 91 87 83 91
16 19 21 19 19 22 22 24 27 27 29 30 31 35 39 45 46 42 37 32 31 31 28 28 36 33 28 32 29 27 26 27 30 27 25 24 24 24 24 23 23 24 23 22 20 18 19 20 19 18 19 19 21 24 31 38 44 50 50 52 56 56 60 66 70 68 66 66 68 72 70 66 64 69 71 70 80 79 75 79 76 82 86 87 90 89 93 94 93 94 94 93 91 92 94 92 94
16 20 23 18 16 19 18 19 26 26 27 27 27 29 30 38 41 40 39 31 29 33 31 29 32 30 25 26 24 26 28 26 26 24 24 24 24 24 23 23 23 23 23 21 17 16 18 19 17 15 16 16 17 17 19 24 32 45 48 48 53 53 55 59 64 64 62 61 61 66 67 61 57 64 67 66 77 73 68 74 72 79 88 87 88 89 93 94 94 93 92 93 93 93 95 97 94
17 21 20 14 16 18 17 19 24 26 26 25 25 27 26 32 35 34 35 30 28 31 32 29 26 25 24 22 21 25 27 24 23 23 24 24 24 24 23 23 23 23 22 19 15 15 18 19 17 15 16 16 18 18 19 18 20 34 43 45 48 50 52 55 59 60 58 57 57 60 61 55 50 56 62 62 70 67 63 68 68 75 84 84 85 90 90 90 91 91 93 93 94 96 96 99 93
21 21 15 15 24 23 22 24 26 27 26 23 22 24 25 27 27 25 26 27 27 27 28 27 22 22 20 17 19 22 23 23 22 22 23 24 24 23 23 23 23 23 21 17 14 15 17 20 20 17 17 18 18 19 21 20 17 23 31 37 42 47 50 52 55 57 54 54 54 54 55 49 42 48 55 57 64 62 57 62 65 69 78 79 81 88 85 83 88 90 93 95 96 98 98 100 92
24 22 17 21 30 24 24 26 27 29 22 21 23 25 26 24 23 23 23 23 24 24 24 25 22 21 18 15 16 16 18 22 22 22 24 24 24 24 23 23 23 23 20 15 13 15 17 20 21 20 19 19 20 21 22 22 20 20 22 25 32 39 46 50 53 55 53 51 48 49 49 40 33 39 46 51 57 56 51 55 60 64 74 74 74 84 79 77 86 89 92 94 97 98 101 99 83
24 22 22 23 26 23 26 26 27 27 18 22 27 26 25 23 26 27 23 20 21 22 23 26 23 18 16 13 12 14 19 23 22 22 24 24 24 24 23 24 23 23 20 14 13 14 17 20 22 24 23 20 20 22 23 23 22 21 20 18 20 25 35 44 48 49 45 39 38 40 39 34 33 36 41 45 52 54 47 48 55 59 68 69 68 76 71 69 82 89 89 90 96 100 99 89 74
25 22 21 19 23 23 24 25 26 24 17 22 27 26 25 24 29 28 23 22 23 23 22 24 23 20 16 12 13 19 23 23 23 23 24 25 25 25 25 25 25 24 19 13 14 16 17 18 22 26 25 23 21 22 24 25 24 24 21 18 15 14 20 26 31 32 30 30 31 31 32 35 41 40 39 41 47 52 47 47 50 53 61 62 62 68 62 61 77 85 84 86 88 86 79 70 69
25 21 17 16 21 22 21 22 21 19 16 24 27 25 25 24 26 25 21 22 22 22 22 21 21 21 18 16 19 22 23 24 24 23 25 25 25 25 25 26 26 25 20 14 15 17 18 18 22 27 28 26 23 23 25 26 26 26 23 18 12 10 13 15 22 26 29 36 33 29 34 37 39 38 38 40 42 44 43 43 44 48 55 55 58 62 53 54 71 74 73 76 66 55 55 59 67
21 19 15 15 18 19 18 18 16 14 13 21 26 24 23 21 22 22 20 21 22 22 22 21 19 20 20 19 21 22 23 26 25 23 24 23 23 23 23 24 24 23 21 20 19 19 19 21 23 26 30 28 25 26 26 27 28 29 27 20 13 12 14 15 26 31 32 41 36 33 37 36 36 36 38 38 37 39 42 43 41 42 47 48 51 51 42 44 58 54 49 53 41 36 45 53 62
20 20 13 15 19 19 18 16 14 13 12 19 24 23 22 19 19 20 18 19 22 24 22 21 20 19 19 19 20 22 25 26 24 23 22 22 22 22 21 21 22 22 21 20 21 22 20 22 25 26 28 26 26 29 29 30 32 33 32 25 19 23 27 27 33 35 35 38 35 37 37 36 40 38 39 39 37 39 41 43 45 45 45 45 43 41 41 41 41 33 27 30 28 31 40 47 57
19 19 11 15 20 18 18 16 15 16 16 18 22 25 24 20 19 18 18 19 22 23 20 21 22 19 17 17 19 22 24 25 24 22 21 21 21 21 20 18 19 20 20 20 21 23 21 21 25 25 24 24 26 29 31 34 35 36 33 27 25 28 33 36 39 39 40 38 34 38 38 41 45 37 37 41 38 38 36 38 43 45 44 45 44 41 45 45 40 34 29 27 27 29 35 43 52
17 18 13 16 19 15 17 17 16 20 19 19 22 26 25 22 20 18 18 19 19 18 16 18 19 16 15 15 18 22 24 24 24 23 22 21 21 21 20 19 18 18 19 21 21 21 20 20 24 24 23 24 25 28 32 34 34 34 31 29 28 29 33 35 36 38 41 42 39 40 40 42 44 37 36 39 37 36 35 36 37 40 41 42 44 41 40 42 42 42 42 39 38 35 35 40 46
16 18 17 17 15 13 17 19 20 23 22 21 23 23 21 21 21 19 19 18 16 15 16 17 16 14 14 15 18 22 23 23 23 24 23 22 22 21 20 20 20 20 20 20 19 21 21 20 21 22 23 24 24 27 30 31 31 31 30 28 26 29 38 36 34 37 39 42 41 41 41 40 39 37 36 37 39 37 37 37 36 39 41 40 40 38 37 40 38 39 42 44 45 42 37 38 40
15 16 15 16 15 14 18 22 25 25 21 20 23 21 20 22 21 20 20 18 16 18 21 20 20 21 20 17 17 20 21 22 23 23 24 23 23 22 21 20 20 21 20 20 20 22 21 19 19 20 22 23 25 25 27 29 31 30 27 24 21 27 37 36 35 38 36 40 42 42 40 39 39 38 38 39 39 39 39 38 38 39 41 40 38 36 37 39 36 35 39 41 44 46 39 36 38
17 16 14 16 16 18 21 24 26 25 21 21 23 21 20 21 20 22 22 18 16 21 26 27 28 30 26 19 18 19 20 21 22 22 23 23 24 23 22 21 20 21 22 21 22 21 19 18 19 20 21 22 25 25 27 29 30 29 23 22 23 26 33 36 37 37 37 39 42 44 43 40 41 41 42 43 41 41 41 40 40 41 41 41 38 36 37 38 36 35 39 39 40 46 42 41 46
19 17 14 16 18 21 23 24 24 24 23 24 23 20 19 21 22 24 22 17 15 18 24 26 27 27 24 19 18 19 20 20 22 22 23 23 23 24 24 23 23 24 23 21 21 21 18 18 19 20 21 22 24 25 27 29 29 27 21 21 23 26 33 37 34 35 38 38 40 46 46 42 43 45 47 46 44 44 44 44 42 42 43 41 39 37 36 37 36 34 37 38 37 43 43 45 51
22 19 15 16 19 21 21 22 23 23 23 23 21 17 19 22 22 22 18 16 16 17 20 21 22 23 20 18 17 18 19 19 21 23 24 24 24 25 24 24 25 24 22 20 20 21 19 17 19 19 20 21 23 25 27 29 28 27 24 21 19 26 34 34 33 37 40 38 41 44 43 44 46 47 49 47 46 46 46 46 44 44 44 42 40 38 38 37 36 35 37 38 36 39 40 42 47
22 19 17 17 18 20 20 20 22 22 21 23 20 17 19 21 22 18 16 19 20 19 20 20 21 21 19 18 17 18 18 18 20 21 23 24 25 26 24 24 25 23 23 21 19 20 18 17 18 19 20 21 23 24 26 28 27 25 24 19 19 26 29 31 36 40 40 40 44 44 40 46 50 48 49 49 48 48 46 44 43 45 44 43 41 39 39 39 37 37 38 40 39 38 39 40 43
18 19 18 17 17 18 19 19 22 21 20 23 21 20 20 22 24 18 16 21 21 19 19 20 21 20 18 18 17 18 18 17 19 20 20 21 23 24 24 24 23 23 24 21 17 18 17 16 18 19 20 21 23 25 26 26 26 24 20 17 21 23 22 31 38 38 40 41 46 48 42 44 50 50 49 50 51 50 48 46 45 47 47 45 43 43 45 43 40 39 40 43 42 40 39 39 42
19 19 19 18 16 16 18 18 21 20 19 22 22 22 22 23 22 16 17 21 20 20 18 18 20 19 18 18 18 18 18 18 19 20 20 20 21 22 22 22 22 23 23 21 19 17 15 16 18 19 21 22 23 25 26 25 25 22 18 18 22 21 24 35 38 38 41 41 45 49 47 45 47 51 49 48 51 49 49 50 49 49 49 48 46 48 50 45 41 39 41 42 41 40 39 39 41
22 22 22 19 18 19 19 19 21 20 21 22 23 22 19 19 18 14 18 20 19 19 17 16 17 17 17 18 18 17 17 19 20 20 21 20 21 21 21 21 21 22 22 22 21 17 16 16 17 19 21 22 23 25 25 25 24 22 19 21 22 21 28 38 38 39 41 40 43 46 49 49 47 51 53 48 48 47 47 49 50 48 48 49 48 48 48 43 40 41 41 40 39 40 39 38 40
24 28 26 20 19 20 20 22 20 18 22 22 23 24 17 15 15 14 19 20 19 17 14 14 15 16 16 17 18 17 16 18 19 19 20 21 21 21 20 19 19 20 21 21 20 18 18 18 18 20 21 22 24 24 24 24 23 22 19 20 23 22 27 37 40 39 40 39 40 43 48 51 48 51 57 52 47 46 46 47 47 48 48 50 47 45 48 44 41 43 42 41 40 40 40 40 40
23 26 23 20 19 20 22 26 23 20 21 21 24 24 18 15 14 17 21 20 19 18 14 14 14 15 16 16 16 15 15 16 18 19 19 20 21 21 20 18 18 19 19 19 19 19 20 20 20 21 22 24 24 24 24 24 23 21 19 18 21 21 24 34 40 39 39 39 40 42 45 51 50 52 59 56 50 46 46 46 45 47 50 50 46 46 49 45 44 46 45 44 43 42 43 42 41
22 21 18 19 19 19 22 26 28 25 22 22 24 24 19 16 16 19 22 20 19 18 16 16 15 16 16 15 16 15 15 16 17 18 18 19 19 20 20 18 18 18 19 19 20 21 21 22 23 22 23 25 25 25 24 23 22 20 18 18 19 20 23 32 39 39 39 39 40 42 44 50 51 51 59 59 52 49 47 47 46 48 52 50 48 48 47 44 45 47 47 46 45 45 45 43 42
18 19 18 20 20 20 21 24 28 27 26 25 24 25 22 17 16 18 19 19 19 19 18 17 16 16 17 16 17 16 16 16 16 17 17 18 18 19 19 18 19 19 20 20 21 22 22 23 24 23 24 25 26 25 24 23 22 20 19 19 19 21 25 30 35 37 38 38 39 42 44 49 50 52 60 62 55 50 49 52 50 49 52 50 49 49 47 46 46 47 48 47 47 48 46 43 43
18 19 19 20 22 22 22 24 28 29 31 30 25 25 23 18 16 16 16 18 20 20 19 18 17 17 17 17 18 17 17 17 17 17 17 19 19 20 20 20 20 20 20 20 20 21 22 24 25 25 25 27 27 26 25 24 22 21 21 21 21 24 27 29 33 36 37 38 39 42 45 49 50 53 61 63 58 51 49 53 52 51 51 49 48 48 47 46 47 49 51 50 49 50 50 48 46
22 22 20 21 22 22 21 23 31 34 33 31 27 26 23 19 18 16 16 17 20 21 19 19 19 18 18 18 18 18 18 16 17 20 21 21 21 21 21 21 21 21 20 20 21 21 21 23 25 26 26 28 28 27 26 25 26 26 25 27 28 29 30 32 35 37 37 40 41 41 43 47 50 55 60 60 60 55 49 51 53 54 53 50 48 48 47 45 45 48 49 50 50 49 49 47 48
24 24 22 22 23 23 22 23 32 38 33 27 25 26 23 20 19 16 16 18 20 21 20 21 20 19 19 18 19 19 18 17 20 23 22 21 20 20 21 21 22 21 20 21 21 21 21 23 25 25 25 28 28 27 25 25 28 30 30 31 30 29 31 34 35 37 39 40 39 38 42 47 53 59 59 57 58 57 52 51 53 54 54 53 50 48 48 48 49 50 50 50 49 48 46 44 47
27 24 23 25 25 24 23 26 31 34 33 27 24 26 24 20 18 16 18 21 21 20 19 19 18 18 18 18 20 20 19 19 21 21 20 20 19 19 21 21 22 22 20 21 21 20 21 22 23 23 24 26 26 26 25 25 25 27 28 28 27 26 29 33 33 35 37 38 37 38 43 49 56 63 60 56 58 57 54 51 51 52 52 53 52 50 51 54 54 52 53 50 44 45 46 46 49
27 22 24 26 25 23 25 32 32 30 30 27 26 27 23 18 18 18 20 22 21 21 21 21 19 18 18 17 19 20 20 20 19 18 17 18 18 19 21 21 21 21 20 20 20 20 21 22 22 22 24 24 24 25 24 24 24 23 23 23 25 26 27 30 31 31 34 36 37 40 46 49 54 61 60 57 58 57 56 53 50 51 52 53 53 51 52 54 53 50 51 50 44 43 45 47 51
23 21 25 25 24 24 26 31 31 28 29 29 29 31 25 19 18 18 21 23 23 24 25 26 25 22 19 18 20 21 20 20 20 18 16 16 17 18 19 20 20 20 20 20 20 20 21 21 21 21 23 24 24 24 23 23 24 23 22 20 23 26 27 31 34 34 35 36 37 40 46 48 51 59 59 57 58 58 57 56 53 51 52 54 54 51 50 50 49 49 51 52 49 46 43 42 45
21 22 24 23 23 23 25 26 27 26 30 33 31 28 23 18 17 15 19 24 23 23 24 25 26 25 24 23 23 23 22 22 22 19 16 17 17 18 19 20 21 22 21 20 20 21 20 20 21 21 23 23 23 23 23 24 24 24 25 26 29 32 33 36 38 37 36 37 39 40 43 45 50 57 59 57 58 58 58 58 56 53 53 55 55 52 50 49 50 52 53 52 51 48 43 38 42
22 24 23 23 23 24 25 26 26 25 26 31 28 24 20 16 16 15 18 20 19 22 23 21 22 22 25 26 22 22 23 23 23 21 20 21 20 21 22 22 23 23 21 21 21 21 21 21 22 22 23 24 23 24 24 24 25 25 28 32 35 36 36 35 34 32 31 33 35 37 40 44 50 56 58 58 59 58 57 56 56 56 57 57 55 52 50 49 50 52 53 53 52 49 45 43 44
22 26 26 26 26 27 28 27 28 26 24 27 27 25 23 17 15 17 21 20 17 20 22 19 20 19 21 23 21 20 21 21 24 24 23 23 23 23 23 23 24 23 22 22 23 23 23 23 23 24 24 25 25 25 25 25 26 26 28 31 32 31 29 26 26 27 28 29 32 34 37 42 47 52 54 55 56 56 55 53 55 59 60 56 54 52 50 50 50 52 53 55 53 49 50 53 49
25 31 29 28 29 29 29 29 29 27 25 26 24 22 26 22 18 20 22 20 17 18 19 19 20 17 18 21 21 22 22 22 26 26 24 23 23 24 24 24 24 24 23 24 25 25 25 25 24 24 25 26 26 27 27 26 26 27 29 31 30 28 26 23 23 26 28 29 32 35 36 39 42 46 48 49 50 51 51 51 53 60 61 56 55 53 51 50 51 52 57 60 57 50 52 55 50
28 33 32 31 32 30 30 30 29 28 27 27 22 22 27 24 18 21 22 18 17 17 17 19 19 19 21 23 24 25 25 26 27 25 24 24 25 25 25 25 24 23 25 26 26 26 26 26 26 26 25 26 27 28 29 28 27 28 29 31 30 29 29 27 26 28 32 33 34 35 37 39 41 44 46 46 47 46 47 49 52 58 58 54 54 52 51 55 55 54 58 61 57 51 52 54 52
32 36 35 35 34 32 31 30 28 29 30 28 24 24 27 24 16 17 19 16 16 15 15 19 21 22 25 26 27 27 26 28 28 27 26 26 27 25 24 24 24 24 25 26 26 26 27 27 27 27 26 27 28 29 30 30 28 29 30 30 30 29 30 32 31 31 34 35 36 36 37 39 41 43 45 45 45 44 45 48 52 57 55 51 51 51 52 56 57 58 60 59 56 53 52 54 56
36 35 31 30 31 29 28 28 28 30 29 27 27 26 27 28 20 14 16 18 17 15 14 17 20 22 24 27 28 28 27 28 28 28 27 27 27 25 24 25 25 26 26 26 26 27 28 28 28 27 27 27 28 29 30 31 31 30 30 29 29 29 29 33 33 31 33 34 33 33 35 37 39 40 41 41 40 41 43 47 51 54 52 49 49 49 51 53 56 60 62 59 57 58 55 54 57
34 27 24 26 27 27 27 28 30 30 27 27 29 27 28 30 23 15 16 21 23 20 17 16 18 19 22 26 27 28 30 29 29 29 28 28 27 25 25 26 26 27 27 27 27 28 29 29 28 28 28 27 28 30 31 32 33 32 31 30 30 29 29 31 30 28 29 30 30 30 31 33 34 36 36 36 37 38 41 45 51 52 50 49 48 48 50 52 55 57 57 56 56 58 58 57 56
28 23 23 27 27 28 30 29 30 28 26 29 29 28 30 27 20 17 16 18 23 25 24 22 22 22 23 26 28 30 32 30 29 28 27 27 26 26 27 26 27 28 27 27 28 29 30 29 29 28 28 28 28 30 31 32 33 33 31 31 31 30 30 31 29 26 26 26 27 28 29 30 31 32 33 34 35 38 40 43 48 50 48 48 50 50 50 52 52 51 52 54 56 57 59 59 57
25 23 24 28 29 35 39 32 30 32 29 29 29 30 33 25 18 19 18 16 20 25 27 28 29 28 28 29 30 31 31 29 28 27 26 26 26 27 28 28 28 28 28 29 30 30 30 29 29 29 28 29 29 29 30 32 33 33 33 32 32 31 32 32 30 27 26 26 26 27 28 29 29 30 32 33 34 36 40 43 46 47 45 46 49 51 51 51 52 50 50 53 56 58 59 61 61
25 24 24 27 28 34 39 34 33 38 34 30 33 36 34 26 21 21 20 20 22 25 27 29 30 30 30 29 28 29 27 25 25 25 26 26 27 28 28 29 29 29 30 31 31 32 31 30 29 29 29 29 28 28 30 31 31 32 34 34 32 32 31 32 31 29 27 27 27 28 29 29 30 31 32 33 35 37 40 43 46 47 45 45 47 49 51 52 53 52 51 53 56 57 59 62 63
27 25 25 28 27 27 33 37 39 43 41 37 37 35 27 20 20 21 21 22 23 24 25 25 25 25 26 26 25 25 24 24 25 26 27 27 27 29 29 30 31 32 33 34 35 35 34 33 31 30 30 30 29 29 29 30 30 31 33 34 34 33 32 32 32 31 29 28 27 28 29 30 31 32 33 34 37 39 41 43 45 46 46 46 46 49 51 51 52 53 53 55 56 57 58 60 61
26 26 27 28 28 26 31 39 40 43 46 38 31 30 24 20 21 19 20 21 20 22 22 21 21 22 23 24 24 24 24 25 26 27 27 27 29 30 30 33 34 35 37 38 38 38 37 36 34 32 31 31 31 31 30 29 30 31 32 32 33 33 33 33 32 31 31 30 30 29 30 31 32 34 35 37 38 40 42 42 42 44 45 46 46 49 52 51 51 53 54 54 55 56 56 58 58
27 28 28 27 30 28 29 37 40 42 46 37 31 33 30 27 26 20 19 22 22 23 22 22 22 22 23 24 24 25 25 26 27 27 28 28 30 31 32 36 38 38 39 40 40 40 38 37 36 34 33 33 34 32 31 31 30 31 31 31 33 33 33 32 32 32 32 32 32 31 32 32 33 35 37 38 40 41 42 43 43 43 43 45 47 49 52 52 53 54 55 55 55 56 58 60 61
28 28 27 27 33 32 31 39 42 44 48 41 36 39 35 31 29 23 23 25 24 24 24 24 24 23 25 25 25 26 26 27 28 28 29 30 31 33 35 38 40 41 42 42 42 42 41 41 39 38 37 37 38 36 35 35 33 32 32 31 32 32 33 32 32 33 32 32 32 32 33 33 34 37 39 41 43 43 43 43 43 43 43 44 46 48 49 50 53 56 56 56 56 58 60 61 64
29 28 26 28 34 34 34 38 40 41 47 45 45 46 36 27 25 23 25 26 24 26 26 25 25 24 25 26 26 27 28 29 30 30 31 32 32 35 38 41 42 43 44 45 46 46 47 46 45 44 43 40 39 39 38 37 36 35 33 32 32 32 33 33 33 33 33 33 32 32 33 34 36 38 41 43 45 45 45 44 43 43 43 45 46 47 48 48 52 55 56 56 58 60 62 62 64
31 30 32 34 34 35 36 39 40 41 43 44 49 50 34 23 24 22 23 25 24 26 26 25 25 25 25 26 27 29 30 31 32 32 33 33 34 38 41 44 45 44 46 47 48 50 51 49 47 46 47 45 43 42 41 40 40 38 35 33 33 32 32 33 33 33 34 33 33 34 34 35 37 39 42 45 46 46 46 45 43 43 43 45 46 48 50 52 54 55 55 57 59 61 63 64 64
29 28 31 33 34 37 40 45 48 45 45 42 45 49 36 23 24 23 22 25 24 24 25 26 25 25 26 27 28 30 32 33 33 34 34 34 37 41 44 45 46 46 47 49 50 51 52 52 49 46 45 47 47 45 43 42 40 38 37 36 34 32 32 32 33 33 34 34 34 34 35 37 38 39 42 45 46 46 46 46 45 44 44 45 46 49 52 54 56 57 58 59 61 63 64 65 67
Wind_Speed
6 6 5 3 1 1 3 3 1 3 2 5 4 2 3 2 2 3 4 2 1 3 2 2 3 2 2 3 5 4 3 4 3 2 1 4 4 3 4 3 6 7 9 11 14 16 17 19 21 21 22 22 23 23 23 23 24 24 24 24 24 24 24 24 24 23 23 23 23 23 24 24 25 25 26 27 27 27 27 27 27 27 26 26 25 27 29 30 32 32 32 32 31 32 35 35 35
3 5 7 7 4 1 1 3 0 3 2 5 3 1 4 3 3 3 3 2 2 5 3 2 3 3 4 4 3 1 2 4 4 3 3 4 4 2 2 3 6 7 10 13 14 15 16 17 18 18 19 20 20 21 21 22 22 23 23 24 24 24 24 23 23 23 23 23 23 23 23 23 24 24 25 26 26 26 26 27 27 27 27 26 26 26 27 28 29 31 31 32 32 32 33 35 36
2 3 3 4 6 4 1 1 1 3 3 5 3 2 3 4 4 2 3 3 5 6 2 0 0 1 1 1 1 1 2 2 1 3 4 4 4 2 1 3 5 8 11 13 13 13 14 15 16 16 17 18 19 19 20 20 21 21 22 22 22 22 23 22 22 22 22 22 22 23 23 22 23 24 24 24 25 25 25 26 26 27 27 27 26 26 25 27 27 28 30 32 33 33 33 34 35
2 2 1 1 2 2 1 2 2 1 3 4 3 4 4 4 4 4 4 4 6 4 0 0 1 1 3 2 1 1 2 3 2 2 3 4 4 3 1 2 5 7 9 11 11 11 12 13 14 15 16 17 17 18 19 20 20 21 21 21 21 21 22 21 21 21 22 22 22 22 22 22 23 23 24 23 24 24 24 25 26 26 27 26 26 26 24 25 26 26 28 30 32 33 32 33 34
7 5 2 0 1 1 2 2 1 0 2 2 3 6 5 3 5 6 5 4 4 1 2 2 1 2 2 1 1 1 3 4 3 3 2 4 6 4 2 1 3 5 7 9 10 9 10 12 13 14 15 16 16 18 19 20 20 21 21 21 21 21 21 21 21 21 21 22 22 22 21 22 22 23 23 23 23 22 23 24 25 25 26 26 25 25 24 24 25 25 26 27 29 32 33 33 34
9 11 12 8 3 0 1 3 2 2 3 1 3 6 5 4 6 7 6 4 2 3 2 3 1 1 1 1 1 2 2 3 4 5 4 5 7 4 2 1 2 3 6 7 8 8 10 12 12 13 14 15 16 17 19 19 20 21 21 20 20 20 20 20 20 20 21 21 21 21 21 22 22 22 22 22 22 21 22 23 23 24 24 25 24 24 24 24 25 25 25 25 27 30 32 32 33
1 3 8 8 4 0 2 5 3 3 3 2 2 5 6 6 6 7 7 5 3 2 1 2 0 1 1 1 2 2 2 2 3 5 7 6 7 5 3 1 1 3 5 6 6 8 11 12 11 12 13 14 16 17 18 19 20 20 20 20 20 20 20 20 20 20 21 21 21 21 21 22 22 22 21 21 21 21 22 22 22 23 23 23 23 23 23 23 24 24 25 25 26 28 30 30 31
5 1 1 2 3 2 3 4 3 2 2 1 2 3 5 6 7 7 7 5 2 2 3 3 2 3 1 1 2 3 5 6 4 6 9 8 8 6 4 2 1 2 4 4 7 10 11 12 10 11 12 13 15 16 18 18 19 19 20 20 20 20 20 19 19 20 20 20 20 21 21 22 22 21 21 21 21 21 21 22 22 23 22 23 22 22 23 23 23 24 25 26 26 28 29 29 28
9 4 1 1 3 3 3 3 2 1 2 2 1 2 3 6 7 5 6 5 1 2 5 5 3 3 2 3 3 4 6 10 9 8 9 9 8 7 5 4 3 3 4 4 8 11 11 11 10 10 11 13 15 16 17 18 18 19 19 19 20 19 19 19 19 19 20 20 20 20 21 21 22 21 20 20 20 20 21 21 22 22 22 22 22 22 22 22 22 23 23 24 25 26 27 26 26
5 4 0 1 2 3 3 2 2 2 3 3 2 3 4 7 7 4 4 4 3 4 4 4 3 4 1 3 3 3 6 10 11 10 11 11 10 8 6 6 6 4 3 5 8 10 10 10 10 10 12 13 15 16 16 17 18 18 19 19 19 19 19 19 18 19 19 20 20 20 20 21 21 21 20 20 19 19 20 21 21 22 21 21 21 21 21 21 21 21 22 22 23 24 24 23 24
1 3 0 1 2 2 2 3 3 2 3 3 2 4 4 6 7 4 4 3 3 4 4 5 4 5 3 3 2 3 6 11 13 13 13 13 11 10 8 8 7 5 4 6 9 10 10 9 9 10 12 14 15 17 17 18 18 17 18 19 19 19 18 18 18 18 19 19 19 19 20 20 21 21 20 20 19 19 20 20 20 21 20 20 21 21 20 21 21 21 21 21 21 22 22 21 22
0 1 1 1 1 1 2 3 4 4 4 5 6 6 4 7 7 5 7 5 5 6 6 8 2 2 5 3 2 4 7 13 14 13 14 13 12 11 9 9 8 6 5 7 8 9 9 9 9 10 12 14 15 16 17 18 19 18 18 18 18 18 18 17 17 17 18 18 18 18 18 19 20 20 19 19 18 19 19 19 20 20 20 20 20 20 20 21 21 21 20 21 21 20 20 21 21
1 1 1 1 1 1 2 2 4 4 4 7 6 7 5 8 7 5 7 5 6 7 6 7 2 2 5 2 2 4 8 14 14 13 14 14 12 12 11 11 9 7 6 7 7 9 9 9 9 11 13 14 16 17 18 18 19 19 19 19 18 17 17 16 16 16 17 17 17 17 17 18 19 19 18 18 17 18 19 19 19 19 19 19 20 19 20 21 20 20 20 20 20 19 19 19 21
1 1 1 2 1 1 3 2 4 4 3 5 6 8 7 5 4 3 5 7 8 5 2 4 4 3 5 2 3 4 6 12 16 15 15 14 13 13 13 12 11 8 7 7 7 9 9 10 10 11 13 15 16 17 18 19 20 20 20 21 20 18 17 16 16 16 16 17 17 17 17 18 19 18 17 17 17 17 18 18 18 19 19 19 19 19 19 20 19 19 18 18 19 19 18 18 21
0 2 2 3 2 2 3 0 3 4 2 7 7 8 8 2 1 3 5 7 4 4 3 3 6 3 2 4 3 4 2 8 16 17 16 15 15 15 14 14 12 10 9 7 8 9 10 11 10 11 13 15 16 17 18 19 20 21 21 22 22 21 19 17 17 17 18 19 19 18 18 19 18 17 17 16 16 16 18 18 18 18 18 18 18 18 19 19 18 18 17 17 18 17 18 19 22
1 2 1 3 2 2 3 2 2 3 2 6 6 6 8 3 2 4 1 3 1 3 3 5 7 3 2 2 3 6 3 5 15 16 15 14 14 15 15 15 13 12 11 9 9 10 10 12 11 11 12 14 16 17 18 18 20 21 21 23 24 24 22 20 19 20 20 21 21 21 20 17 14 14 14 15 15 15 17 18 18 18 17 17 18 17 18 19 17 17 17 17 17 18 20 22 23
1 1 1 1 2 2 4 5 4 1 3 6 6 8 8 5 4 3 1 2 4 4 5 6 7 6 6 2 3 2 3 4 15 15 14 13 12 13 13 14 13 13 12 11 11 11 11 13 13 12 11 14 16 17 18 18 20 21 21 22 25 25 23 21 20 20 20 18 20 21 19 14 12 13 13 13 14 15 17 17 18 17 16 17 16 16 17 18 16 16 17 17 18 21 23 23 22
2 1 1 1 1 2 2 6 4 1 2 7 9 9 9 5 5 4 2 5 7 5 7 8 8 11 12 8 6 6 4 6 15 16 15 14 13 13 13 13 13 13 11 11 11 12 13 13 14 12 11 14 16 17 18 19 20 20 20 21 24 25 23 21 18 18 17 16 18 19 15 12 13 14 13 14 16 18 17 17 19 18 16 16 15 16 18 17 15 16 17 18 20 22 23 22 21
1 1 1 1 2 1 1 3 4 1 2 7 8 7 7 4 5 6 4 6 7 9 10 9 11 14 16 15 13 10 6 9 15 17 18 17 16 15 14 13 13 14 12 11 11 11 13 14 14 14 14 17 17 15 17 18 17 17 17 19 21 21 19 19 16 16 15 15 17 16 13 13 14 14 13 16 18 18 16 16 18 17 15 14 15 17 16 16 17 18 19 19 20 21 21 20 20
1 1 1 2 3 3 2 1 4 1 1 7 7 5 5 3 3 5 5 5 6 10 10 8 11 14 15 15 14 11 10 12 15 18 19 19 18 17 16 15 14 14 14 13 11 12 15 15 14 16 18 19 18 16 17 15 15 15 16 17 18 17 16 15 13 13 14 15 17 14 13 14 14 14 14 15 17 16 16 16 16 14 12 11 14 15 12 13 16 17 19 19 20 20 20 20 19
1 2 1 4 2 3 2 0 3 1 1 4 7 5 5 3 3 5 5 5 7 10 11 10 12 13 13 11 12 12 12 14 16 18 20 20 19 18 17 17 16 14 13 14 15 15 16 16 15 18 20 20 19 18 17 15 16 16 15 15 16 15 14 14 12 12 12 13 15 13 14 14 14 15 15 16 16 16 17 16 14 12 11 11 12 12 10 11 12 12 14 16 17 18 19 19 19
2 2 2 4 1 2 3 1 2 2 1 4 6 5 3 3 4 8 8 9 7 2 4 9 12 12 7 6 10 12 13 15 17 19 20 20 20 19 18 17 17 16 17 19 19 16 16 18 18 20 21 21 21 20 18 18 18 16 14 15 15 14 12 12 12 11 11 13 14 14 14 14 14 15 15 16 16 16 15 14 13 12 11 12 11 11 11 11 11 10 11 12 13 15 17 18 19
1 2 1 1 1 1 3 2 1 0 2 4 4 2 2 3 6 7 11 16 8 4 3 2 6 8 4 2 8 11 14 16 18 20 21 21 21 21 20 19 19 18 19 21 19 18 18 21 21 22 22 22 22 22 21 19 18 17 16 17 17 14 12 12 11 11 13 14 14 13 14 15 15 15 15 15 15 14 14 13 13 12 11 11 10 11 11 11 10 10 10 10 11 13 16 17 18
1 3 3 1 2 2 3 2 1 1 0 2 1 1 3 6 5 1 10 18 12 2 3 0 3 3 3 5 9 11 14 16 18 20 20 20 22 23 22 20 19 18 19 20 19 20 21 22 22 23 23 23 23 23 22 19 18 18 17 16 15 14 13 11 10 13 14 13 12 13 14 14 14 14 14 14 14 13 13 14 13 12 12 11 11 11 11 11 10 10 10 10 10 11 14 16 16
4 4 3 2 3 3 3 3 2 2 1 1 1 4 5 4 3 4 13 17 13 9 5 4 4 2 5 8 10 12 13 16 18 18 18 19 20 20 22 22 20 21 24 24 21 21 23 22 22 23 24 24 24 23 22 19 18 18 17 16 14 15 13 11 13 14 12 12 12 12 13 14 13 13 13 13 13 13 13 13 13 12 12 11 11 11 10 10 11 11 10 10 10 10 11 12 13
4 4 4 3 3 3 2 2 2 1 1 1 4 8 4 1 3 8 15 12 7 8 8 8 7 7 8 8 10 12 14 16 17 17 18 18 17 19 25 26 24 27 30 28 25 23 24 23 23 24 24 24 24 23 22 19 18 17 16 16 16 15 12 13 15 12 11 12 11 12 15 14 13 13 13 13 13 13 13 13 13 12 11 11 11 11 10 10 11 11 10 11 11 10 10 11 12
3 6 6 4 3 2 2 1 2 1 0 1 5 9 4 3 2 8 6 1 1 4 8 8 8 11 11 8 10 12 14 17 16 16 16 17 17 21 26 25 27 32 31 30 29 27 26 26 25 25 25 25 25 24 22 20 19 17 16 17 16 14 14 15 13 11 12 12 11 14 16 13 12 13 12 13 13 13 13 12 12 11 11 10 10 10 10 10 10 10 11 11 11 11 11 11 12
4 5 5 5 2 2 1 0 2 1 1 1 6 10 6 4 4 12 4 3 1 4 7 7 8 10 10 9 9 10 13 15 13 14 17 19 19 20 23 26 30 32 31 34 34 30 30 29 28 27 26 26 25 24 22 21 20 19 18 17 16 16 17 14 11 12 12 11 12 14 15 13 12 13 12 12 12 12 12 12 11 10 10 10 10 10 10 10 11 11 11 10 11 11 11 11 11
2 1 1 2 2 2 2 1 1 2 0 1 5 9 6 7 10 12 3 4 2 4 7 7 8 9 8 8 8 9 12 12 12 15 19 21 21 20 23 29 31 29 31 35 35 35 34 32 30 29 28 27 26 24 23 22 22 21 20 17 16 17 16 12 12 12 12 12 12 13 14 14 13 12 12 12 12 11 11 11 10 10 9 9 9 10 10 10 11 11 11 11 11 11 11 11 11
1 1 2 1 4 2 2 1 1 2 0 1 4 6 3 9 13 9 3 3 2 4 7 6 7 7 7 7 7 9 11 13 15 18 20 20 22 22 25 29 29 30 32 32 35 38 37 35 33 30 29 28 27 26 24 22 22 21 19 17 16 17 14 12 12 12 12 12 12 12 14 13 13 12 12 12 12 11 11 10 9 9 8 8 9 9 10 10 10 10 11 12 12 12 12 11 12
1 0 0 1 3 0 3 2 2 2 0 1 3 6 5 3 7 6 3 2 4 7 9 7 6 6 6 6 6 8 10 14 17 19 20 22 23 24 29 34 32 33 34 35 38 39 38 37 36 33 32 30 29 28 26 24 23 21 20 18 17 17 15 13 12 12 12 12 12 13 13 13 13 13 12 12 12 12 11 10 9 9 8 8 9 9 9 10 11 11 11 11 12 13 12 12 13
1 2 1 0 2 1 3 3 1 1 1 1 3 6 9 5 1 4 3 2 4 7 10 8 7 7 6 6 6 8 9 13 16 19 22 24 25 26 32 37 36 36 37 39 40 39 39 39 38 37 35 32 31 29 27 26 24 22 22 20 18 18 17 14 13 13 13 13 13 13 13 14 13 13 13 13 12 12 11 11 10 9 9 9 10 10 10 11 11 11 11 11 12 13 13 14 14
1 2 3 2 3 4 1 3 2 2 0 2 4 6 10 6 1 4 5 4 4 7 10 10 10 9 7 7 7 8 9 11 13 18 23 23 25 29 33 37 38 38 39 40 40 40 40 39 40 39 36 34 32 30 29 27 26 24 22 21 20 20 19 16 14 13 13 13 13 13 13 13 13 13 13 13 13 12 12 12 11 10 10 10 11 11 11 11 11 11 12 11 12 13 14 14 15
1 1 3 2 2 5 4 1 3 1 2 4 6 8 15 14 8 5 5 6 5 10 13 12 11 10 9 8 8 9 10 10 12 17 19 18 21 26 30 33 35 37 38 39 40 40 40 38 39 39 37 35 32 31 29 28 26 25 23 22 21 20 19 18 16 14 15 13 13 13 13 14 14 13 13 13 12 12 12 12 12 11 11 11 11 12 12 12 12 12 12 12 12 13 14 15 16
3 3 4 3 3 4 5 3 1 1 3 6 8 11 18 20 16 13 8 6 8 12 13 12 11 10 9 9 9 10 9 11 15 17 15 13 18 22 25 28 31 33 34 37 38 38 39 38 37 38 37 35 33 31 29 28 26 25 24 22 21 20 19 19 18 16 15 14 13 14 14 14 13 13 13 13 12 12 12 12 12 12 12 12 12 13 13 13 13 13 13 14 14 14 14 15 16
2 3 3 5 6 5 7 5 2 2 5 9 10 12 18 20 17 14 10 7 9 12 11 10 9 8 8 8 8 9 9 11 15 15 15 16 21 24 25 26 28 31 32 33 35 35 37 37 35 37 37 35 33 31 30 28 26 24 23 20 19 19 18 18 17 17 16 14 14 15 15 13 13 13 13 13 12 12 12 12 12 12 12 13 13 14 14 14 14 13 14 14 15 15 14 15 15
1 1 3 5 6 7 6 2 3 1 5 8 8 11 19 20 17 14 10 5 8 10 9 8 8 6 6 7 8 9 9 11 12 15 19 22 25 26 25 27 27 29 31 32 33 34 35 35 34 36 36 34 34 33 32 30 27 23 20 18 18 15 14 15 15 15 15 15 16 17 15 13 13 13 13 13 12 12 12 12 12 13 13 13 14 14 14 14 14 14 14 14 14 15 15 14 13
0 2 4 4 5 7 4 1 2 1 3 6 6 12 20 19 14 11 6 4 6 6 7 7 7 6 5 6 8 8 8 9 11 14 19 19 23 24 22 25 26 27 30 30 32 34 34 34 35 36 35 35 37 36 34 33 31 27 22 18 17 15 14 14 14 13 14 15 17 18 15 13 13 13 13 13 12 12 12 12 13 13 13 13 13 14 14 14 15 14 14 14 14 14 14 13 11
1 2 3 4 2 5 4 2 3 2 2 7 6 10 19 17 11 7 3 4 4 3 4 6 5 5 6 6 7 7 7 9 9 12 14 15 18 21 20 23 25 27 29 29 32 34 33 34 37 37 35 36 38 37 36 36 33 31 27 22 18 15 14 15 16 16 17 17 18 17 15 13 14 14 14 13 13 13 13 13 13 13 13 13 13 13 14 14 14 14 14 13 14 14 14 12 10
3 2 3 4 2 3 3 1 0 4 5 7 9 9 13 12 5 1 0 2 3 4 5 6 6 7 8 6 5 7 9 9 9 10 12 13 14 15 18 23 24 25 28 31 32 33 34 36 37 37 36 37 38 38 39 37 33 31 30 27 23 20 18 16 17 18 19 19 18 16 15 14 14 15 14 14 14 14 13 14 14 14 13 13 13 13 13 14 14 13 13 13 12 13 13 11 9
3 5 4 4 3 3 4 3 7 8 4 4 9 8 6 2 1 2 2 2 4 3 5 6 7 9 8 7 8 9 10 9 9 10 11 12 13 14 17 22 24 25 29 33 33 33 34 36 37 37 37 37 38 39 39 36 33 31 27 25 23 21 20 18 17 17 17 17 16 15 14 14 14 15 15 15 15 15 14 15 15 15 14 13 13 13 13 13 13 13 12 12 12 12 12 11 9
3 5 4 3 3 4 6 8 9 7 2 1 5 6 1 2 3 4 2 1 3 2 3 6 6 7 6 7 9 9 9 9 9 10 11 12 14 17 19 21 22 25 30 33 33 33 35 36 36 36 37 38 39 39 38 36 34 32 27 23 19 17 17 17 18 17 15 15 14 13 13 14 15 15 16 16 16 15 15 16 15 15 14 13 13 12 13 12 12 13 12 12 12 11 11 11 10
3 1 2 2 2 4 7 7 6 5 4 1 1 5 3 2 4 2 2 3 3 2 4 5 4 5 5 6 7 6 6 6 6 8 10 12 14 15 18 21 20 24 31 32 32 33 34 35 35 35 36 38 38 38 38 37 35 33 30 26 22 19 18 17 17 16 15 15 14 14 13 14 15 16 16 16 16 16 16 16 16 16 15 14 13 13 13 13 13 13 12 12 11 10 10 10 9
2 2 2 1 3 6 5 4 4 4 6 2 2 2 5 5 3 2 2 4 4 3 4 4 4 4 4 5 5 5 6 5 4 7 9 11 13 14 16 21 25 27 31 32 32 33 33 33 34 34 35 37 38 38 38 38 37 36 33 29 25 23 22 19 15 15 15 15 15 15 14 14 16 16 17 17 17 17 16 16 16 16 16 15 14 14 14 13 13 12 12 12 11 10 10 10 9
1 4 1 1 2 4 2 3 4 2 4 3 3 1 4 6 1 4 1 3 2 1 2 3 3 3 3 4 4 5 4 4 4 6 9 11 14 17 19 23 29 32 31 31 32 32 32 32 32 32 34 36 37 37 37 38 39 37 34 30 27 25 24 21 17 16 16 16 16 16 15 14 15 16 17 17 17 17 17 17 17 17 17 16 15 14 14 14 14 13 13 13 12 11 11 11 10
2 4 1 1 2 0 1 3 2 1 4 3 2 1 4 6 2 2 1 1 0 0 1 2 3 3 4 4 4 4 3 4 4 5 10 13 15 20 25 26 30 32 31 31 32 31 31 31 30 31 33 35 35 36 37 38 39 38 34 32 29 26 22 19 18 17 17 16 16 16 16 15 15 15 17 17 18 18 18 18 18 18 17 16 15 15 14 14 14 15 14 14 13 12 11 11 11
2 3 2 2 3 2 1 1 1 2 4 1 3 2 3 5 3 0 1 1 2 2 2 3 3 4 4 3 3 4 6 6 6 7 10 14 17 22 26 25 27 30 30 31 32 32 31 30 30 31 33 33 34 35 36 37 38 39 38 35 33 30 24 20 19 19 18 18 18 17 16 15 15 15 16 17 18 18 19 19 20 19 18 17 16 16 15 15 15 15 15 15 14 14 13 12 12
2 3 4 4 2 2 2 2 2 3 3 3 3 2 4 4 3 1 1 1 1 1 3 5 6 8 8 6 6 7 7 7 7 8 10 13 16 20 22 22 24 27 29 31 32 33 32 31 30 30 32 33 33 33 35 37 37 39 41 38 35 33 28 23 23 22 20 20 19 17 16 15 15 15 16 17 18 18 19 20 20 20 19 18 17 16 16 15 15 15 15 15 15 15 14 13 13
3 3 3 5 4 2 2 2 2 3 1 3 2 2 4 7 7 7 8 6 3 3 3 5 8 10 11 11 10 8 7 7 7 8 9 11 14 17 19 21 22 22 25 29 32 33 32 32 30 29 32 34 31 32 34 36 37 40 42 40 37 34 30 28 26 24 22 21 19 18 17 16 15 15 17 17 18 18 19 20 20 20 20 19 18 17 16 16 15 15 15 15 15 15 15 15 14
2 3 2 4 5 5 5 3 2 3 1 3 3 2 4 6 5 5 7 8 5 2 3 5 6 8 9 9 9 8 7 8 8 8 9 10 14 17 18 19 19 19 22 26 28 30 30 31 31 29 32 34 31 31 33 34 37 40 41 40 39 35 32 31 29 26 24 22 21 20 19 17 16 16 17 17 17 18 20 20 20 20 20 19 18 18 17 17 16 16 15 16 16 15 15 15 15
0 1 2 2 2 4 6 4 3 4 3 0 2 1 4 3 1 1 3 7 5 3 3 3 3 3 5 6 6 7 8 8 8 9 11 13 17 19 18 18 19 20 23 25 25 27 27 28 30 29 32 34 31 31 32 34 37 38 39 40 41 39 35 32 30 29 26 24 23 22 20 19 18 17 17 17 17 18 19 20 20 20 20 19 19 18 17 17 17 17 16 16 16 15 15 15 15
1 1 1 2 0 3 3 2 2 3 4 3 3 3 3 3 5 4 3 3 2 4 3 3 4 3 3 6 7 8 9 10 10 11 12 16 18 18 17 19 21 23 25 26 27 28 27 26 28 29 31 33 32 32 32 34 36 36 37 40 41 41 38 34 31 30 29 27 26 25 22 21 19 18 17 17 17 18 19 20 20 21 20 20 19 19 18 18 17 17 17 16 16 15 15 16 15
2 2 1 1 2 3 2 1 1 1 4 3 3 5 3 2 4 2 2 5 7 9 9 9 9 8 7 8 9 10 11 11 13 13 14 17 19 18 19 21 23 25 26 27 28 28 27 27 28 28 29 31 32 33 33 34 34 35 37 39 40 40 39 38 35 31 29 28 29 27 24 22 21 19 18 17 18 19 19 20 20 20 20 20 20 20 20 19 17 17 17 17 16 15 15 16 15
1 1 1 2 0 1 1 2 1 3 5 3 2 7 6 3 2 1 7 11 11 12 14 14 14 13 12 12 12 13 14 14 15 16 16 18 19 19 20 22 24 25 26 26 27 27 26 27 28 27 28 30 32 32 32 33 34 35 37 38 39 40 40 40 38 33 28 27 30 29 25 24 23 21 19 18 18 19 20 20 20 20 20 20 20 20 20 20 19 18 18 17 16 16 15 15 15
2 0 1 0 3 2 1 2 3 4 6 3 2 5 6 3 2 3 8 10 11 13 14 15 16 15 13 14 15 16 16 16 16 16 15 16 17 18 21 24 25 26 26 26 26 25 25 26 26 26 28 30 32 32 33 34 34 35 37 39 40 40 40 40 38 34 29 28 29 29 28 27 23 21 21 19 19 19 20 20 20 20 20 20 20 20 20 19 19 19 18 17 17 16 16 15 15
1 1 1 1 2 3 1 1 2 3 6 6 2 3 4 3 2 4 8 8 10 12 12 12 14 14 13 13 15 15 16 15 15 15 14 14 16 18 22 25 27 27 26 26 26 26 25 25 26 26 27 29 30 31 32 34 34 35 37 39 40 39 40 39 37 33 30 31 30 29 30 28 24 23 22 20 20 20 20 20 20 20 20 20 20 20 20 20 20 19 18 17 17 17 17 16 15
2 3 3 1 1 1 2 2 1 2 5 6 4 5 4 1 2 3 6 7 8 10 12 12 13 15 15 15 15 15 16 16 15 15 13 13 16 19 23 26 26 26 25 25 26 26 27 28 28 27 26 26 29 30 30 32 34 35 36 37 39 39 38 37 35 33 31 31 31 31 31 29 26 25 23 21 20 20 20 21 20 20 21 20 20 20 20 20 20 19 18 17 16 16 17 16 15
1 3 3 2 2 1 3 4 1 0 4 4 4 7 5 1 1 1 3 4 8 12 14 15 16 18 18 16 16 17 16 16 16 15 12 12 16 20 24 26 26 25 25 26 28 28 30 31 31 30 27 25 26 27 28 29 30 31 34 37 38 36 35 35 34 32 30 30 32 34 33 30 29 27 24 22 21 20 20 20 20 21 21 20 20 20 20 20 20 20 19 18 17 17 17 17 16
Wind_Direction
27 29 47 83 83 193 22 4 100 50 68 88 84 126 92 59 98 158 153 152 183 99 77 34 39 22 13 32 54 57 23 356 6 322 18 92 130 82 38 23 19 14 9 8 9 10 11 11 11 10 10 10 9 10 10 10 9 8 8 7 7 7 7 7 6 6 7 7 6 5 7 9 9 9 9 9 7 6 4 1 359 357 355 352 353 354 356 358 359 358 0 2 1 0 1 3 1
50 70 69 73 51 16 32 334 94 99 120 104 85 89 100 159 182 176 149 135 86 109 144 67 63 57 47 50 56 100 79 37 26 41 73 119 152 105 4 11 14 10 8 5 6 7 8 10 11 11 10 10 10 11 10 10 9 8 7 6 5 4 5 5 5 5 5 5 4 4 5 6 7 8 8 8 7 5 4 1 359 358 355 351 348 348 351 352 353 354 357 360 360 360 359 359 0
96 121 69 51 48 46 107 331 92 131 127 111 121 122 133 182 170 136 108 111 102 117 158 149 333 23 303 215 223 290 95 108 97 98 111 144 155 151 236 5 6 5 3 358 3 6 9 10 9 11 11 11 11 12 11 10 10 8 7 6 6 4 4 4 3 3 3 3 2 3 4 5 6 6 6 6 6 4 3 2 0 359 356 354 350 345 346 346 346 349 353 357 357 357 358 357 357
108 170 246 313 68 55 65 46 60 138 119 118 136 144 181 185 138 117 103 116 122 131 358 274 224 38 288 260 98 304 110 132 153 140 128 149 162 153 185 352 3 5 1 354 2 9 11 9 9 10 11 12 11 12 11 10 10 9 8 7 6 5 4 4 3 2 2 1 1 2 3 4 4 4 4 4 5 3 2 2 1 360 357 355 353 348 344 342 343 342 343 350 354 355 355 355 357
80 78 84 163 94 47 61 86 89 97 104 114 133 150 182 162 131 129 127 141 149 224 335 305 261 87 286 313 353 277 110 118 150 180 142 154 178 166 184 342 12 6 356 352 3 11 9 9 9 9 11 12 11 11 10 10 10 9 8 7 6 5 4 4 4 3 3 2 2 2 2 3 3 3 2 3 3 2 2 1 1 0 358 356 354 352 348 344 342 338 335 339 346 352 354 352 355
80 75 70 79 85 243 148 112 108 92 71 22 111 144 165 144 142 139 140 159 190 280 297 272 294 75 235 137 260 292 91 121 142 175 172 171 186 178 187 296 13 355 342 349 6 11 6 9 10 9 11 11 11 10 9 10 9 9 8 7 6 6 5 5 5 4 4 4 3 3 3 3 2 2 1 2 2 2 3 1 1 0 358 357 355 354 352 347 343 338 333 330 334 344 352 353 352
86 80 60 79 98 327 94 96 108 105 88 338 62 134 154 143 145 146 157 181 202 223 223 232 277 271 228 112 228 212 204 176 136 173 179 185 190 187 196 226 355 324 329 348 3 4 0 4 9 9 10 11 11 10 10 10 9 9 8 8 7 6 5 5 5 5 6 5 5 5 4 3 2 2 1 2 1 1 2 1 1 0 358 356 356 355 352 350 347 343 338 332 326 329 338 347 349
45 52 333 69 85 48 79 96 99 86 106 266 2 115 142 146 157 163 174 190 195 175 176 168 184 256 134 122 240 159 198 205 192 190 181 189 192 193 206 209 205 287 319 347 352 357 356 356 2 8 10 10 11 11 11 11 10 9 8 8 6 6 5 4 5 5 7 6 6 6 5 5 4 2 2 2 1 1 2 2 1 359 359 356 355 355 352 351 349 346 343 338 331 325 326 334 342
46 37 238 88 86 91 91 96 98 92 138 166 192 121 131 152 164 176 184 194 209 185 179 154 179 263 85 196 231 128 199 213 205 197 189 192 192 201 214 221 225 267 308 337 346 352 350 350 355 1 6 5 7 9 10 11 9 8 7 6 5 5 4 4 4 5 6 6 6 6 5 5 5 4 3 2 1 3 2 2 1 359 359 357 355 353 352 351 348 346 342 338 335 333 329 328 335
43 23 134 100 106 121 107 138 135 135 151 163 194 168 166 166 171 194 204 206 186 181 168 141 210 253 319 217 215 137 192 199 195 195 193 193 195 208 218 237 250 260 288 328 343 345 340 345 354 356 357 356 358 359 2 5 7 6 5 4 3 2 2 1 1 3 3 4 4 3 4 4 4 4 3 3 2 3 2 2 1 359 358 357 356 354 352 351 347 345 342 338 334 335 335 331 335
49 43 49 165 114 123 122 159 155 153 156 171 203 179 181 178 187 206 217 224 175 183 162 161 224 227 223 243 214 142 172 183 190 194 193 196 202 211 220 239 256 264 280 322 338 335 331 336 346 351 349 347 349 350 352 355 360 2 2 2 360 360 359 358 358 359 360 360 1 360 1 0 1 2 1 2 2 4 3 2 1 359 359 356 355 354 352 351 349 345 341 339 337 336 336 333 333
333 83 268 181 78 22 89 145 160 156 166 197 195 173 176 179 192 205 205 214 182 196 191 186 216 180 201 240 180 135 173 191 194 194 194 198 207 214 223 236 252 265 284 318 331 324 319 321 330 339 340 340 341 342 345 347 352 356 358 359 357 356 355 354 354 354 355 355 355 355 356 356 357 358 358 359 1 3 3 2 1 359 357 356 354 352 351 350 348 346 342 338 337 336 334 334 330
37 131 271 94 32 3 116 128 148 156 187 206 187 155 164 179 198 215 196 197 190 201 199 187 170 207 230 253 123 156 197 203 195 191 197 201 208 219 228 236 247 261 285 312 318 312 310 310 313 324 331 333 334 335 339 341 346 350 352 354 353 352 349 348 348 347 348 348 349 349 349 349 350 353 354 355 358 360 2 2 360 358 355 354 353 351 349 348 347 346 342 338 336 334 333 333 328
46 120 357 101 108 118 141 110 148 190 190 164 146 142 167 193 214 218 193 205 205 190 147 159 163 217 240 227 189 183 197 199 194 194 200 205 211 222 231 238 246 257 276 297 302 301 300 301 304 314 322 326 329 330 333 335 340 345 346 348 347 345 343 341 339 339 340 340 340 340 341 340 341 345 348 350 353 356 358 359 357 355 353 351 351 350 347 345 346 344 341 339 335 333 332 331 323
80 132 60 112 140 159 182 183 165 211 167 138 142 148 172 199 197 197 213 230 209 113 96 159 184 213 212 209 180 114 111 186 193 197 200 208 217 226 234 238 246 253 265 280 284 288 288 292 297 303 311 318 323 324 326 329 334 339 341 342 343 340 337 334 332 331 331 331 332 332 333 335 335 337 343 346 348 351 353 355 354 351 350 348 347 346 345 343 343 342 340 337 333 332 331 325 319
57 150 116 124 161 199 187 182 166 211 144 131 142 157 177 175 184 212 251 288 291 127 184 190 190 245 275 214 92 84 42 182 188 194 199 209 220 230 237 239 245 249 256 266 268 275 279 283 285 289 299 307 314 318 320 323 327 333 337 338 340 339 335 331 329 329 329 330 330 330 332 333 330 330 336 341 343 346 347 349 348 346 345 343 343 341 340 341 342 340 338 336 329 324 321 318 317
268 218 175 137 172 194 174 178 171 155 109 128 151 175 188 174 180 229 29 272 250 181 211 214 199 243 254 226 99 82 350 179 183 190 198 210 220 229 235 236 239 242 248 254 258 264 270 277 278 281 290 297 306 311 314 317 321 328 332 334 337 338 334 331 329 329 330 330 330 332 334 330 324 325 329 335 338 337 336 337 339 340 338 336 338 336 334 338 340 337 335 334 325 318 316 316 315
266 224 277 286 158 171 170 171 159 54 120 154 170 186 202 190 171 181 176 222 232 230 232 229 229 241 242 244 241 257 292 187 185 192 202 210 216 223 227 229 230 235 240 242 251 256 262 270 271 275 279 289 300 306 310 314 318 324 327 330 335 336 333 331 330 328 330 329 330 332 332 325 323 322 321 326 328 328 326 326 331 331 328 328 329 328 329 334 336 335 333 330 325 321 319 317 314
359 121 284 347 77 84 44 134 134 54 97 148 168 189 209 201 157 167 213 218 206 238 239 221 238 243 238 238 237 243 238 195 191 199 209 212 215 221 224 227 228 231 235 240 247 248 257 264 265 270 274 284 294 300 305 310 315 319 323 327 332 334 332 330 328 327 329 327 328 330 327 322 322 320 316 320 324 325 323 321 323 325 323 323 325 326 326 330 333 334 333 329 327 326 324 321 319
3 309 274 76 73 83 55 120 121 46 89 150 161 174 211 210 139 166 227 241 207 234 236 214 231 240 236 226 215 215 210 203 201 206 214 218 219 223 227 229 229 232 237 243 247 246 258 263 262 269 275 283 289 294 300 305 310 314 318 323 328 330 327 327 325 325 326 325 326 326 323 319 318 318 315 318 322 320 318 318 317 318 321 320 322 326 324 327 333 335 335 335 333 333 331 329 325
46 332 4 91 120 114 101 257 114 79 311 152 145 147 209 196 160 198 222 251 240 236 234 229 232 237 237 216 195 196 204 206 206 211 218 222 223 225 229 232 234 238 240 242 248 251 260 263 262 269 275 279 285 291 295 298 304 309 315 319 325 326 323 323 321 321 323 324 325 322 319 316 315 315 314 315 316 315 314 315 313 310 311 312 317 320 319 324 329 332 335 338 339 340 339 335 331
69 24 24 89 160 114 97 59 106 126 111 135 147 161 191 143 194 221 217 238 253 252 230 236 242 249 247 203 191 194 204 209 208 214 218 222 225 227 231 233 237 239 242 246 251 252 258 264 265 268 272 276 281 286 290 294 300 305 309 314 321 321 318 318 316 319 320 319 320 320 318 316 314 313 313 314 314 314 313 312 310 305 302 304 307 310 313 318 322 324 330 335 336 340 343 340 336
88 91 98 79 346 44 84 85 96 122 152 148 155 169 142 172 231 223 220 237 247 61 75 254 262 265 272 196 199 198 206 211 212 215 217 221 224 227 230 232 237 238 243 248 251 253 256 263 268 269 271 274 278 283 287 292 295 300 304 311 319 318 313 311 311 314 314 315 316 317 318 315 314 314 313 314 314 313 312 311 307 299 295 295 297 302 306 309 314 317 321 328 329 333 340 342 341
28 116 130 34 37 46 51 84 98 22 63 124 102 205 199 224 252 223 230 241 242 201 115 162 300 282 250 220 212 209 214 215 218 221 220 223 226 229 232 234 238 239 243 247 249 253 258 264 267 268 270 272 275 280 285 288 289 294 301 308 313 313 311 305 305 309 310 311 311 312 316 316 314 313 312 312 312 311 309 309 304 295 288 286 289 294 298 302 308 310 312 321 323 325 334 340 340
51 105 131 87 76 63 68 97 95 63 63 98 199 236 227 231 294 293 252 250 244 228 191 211 247 250 227 224 223 219 222 223 224 227 225 229 232 234 236 237 239 240 243 246 249 253 259 264 266 267 270 272 273 276 281 283 284 289 297 303 307 309 306 299 302 306 305 305 306 308 313 316 314 311 311 310 310 309 308 306 300 290 281 280 283 286 291 296 302 306 307 314 318 318 325 332 333
55 99 119 112 88 65 91 118 88 66 88 140 250 257 240 186 311 272 254 262 259 228 222 230 232 239 233 225 228 224 225 228 225 227 229 233 235 236 239 239 240 242 244 247 249 252 258 263 265 266 268 270 272 274 277 278 280 285 291 297 304 305 299 299 304 302 297 301 300 302 310 313 312 309 307 308 309 307 305 304 298 286 277 276 277 281 287 291 296 301 303 307 313 315 316 322 326
89 104 103 93 97 89 71 96 86 359 262 144 274 274 256 114 286 263 243 268 316 221 228 229 227 241 241 230 229 228 232 234 229 230 233 234 234 236 240 239 241 244 245 246 248 250 256 261 264 266 267 268 269 271 273 274 277 280 283 293 300 298 298 300 299 293 293 297 293 298 307 308 306 304 302 304 306 304 302 301 297 285 274 273 273 278 281 286 292 294 297 301 304 307 308 313 320
101 116 121 88 89 129 98 97 70 299 230 119 281 276 257 127 218 250 237 104 166 239 240 225 226 241 242 237 233 232 238 240 234 232 234 233 233 235 238 239 242 243 245 247 248 250 255 259 262 264 265 266 267 268 270 272 274 277 281 289 293 294 299 297 288 288 289 290 291 295 301 301 301 298 295 300 301 301 298 296 294 281 271 271 272 274 276 281 286 287 290 294 297 300 301 305 312
103 137 152 111 207 180 152 118 73 265 283 27 282 278 239 182 220 241 207 106 165 249 252 234 232 241 242 238 237 238 242 243 236 234 236 237 238 238 240 243 244 244 246 249 250 251 254 257 260 261 262 263 265 266 267 269 271 274 279 284 285 291 296 289 281 283 283 287 288 289 294 295 295 291 289 294 296 296 295 292 289 277 269 269 269 271 273 276 280 283 287 289 293 295 296 301 306
145 359 345 237 239 191 132 102 137 224 310 339 286 300 246 189 220 230 131 134 208 257 257 244 235 240 242 237 239 244 244 241 237 239 241 242 243 243 245 248 247 248 250 251 252 253 254 255 258 259 261 263 265 265 264 266 268 271 275 278 281 287 288 278 277 277 279 285 284 285 289 289 289 285 282 286 287 288 289 287 281 272 266 265 269 270 270 275 278 281 286 289 291 293 295 299 303
204 52 243 261 304 108 128 130 203 213 87 335 288 287 279 196 207 203 131 179 230 265 263 253 242 238 243 240 243 251 248 243 243 246 246 245 247 247 251 253 251 251 252 253 255 256 255 255 257 259 261 264 264 264 264 264 266 267 270 273 276 282 282 274 272 273 276 281 282 283 283 282 285 280 275 279 280 280 280 279 275 267 263 265 269 267 268 273 275 278 283 287 290 292 292 296 300
6 305 256 82 326 308 128 123 261 284 92 260 273 275 283 303 166 148 118 179 214 256 263 260 255 250 253 254 253 259 260 252 250 251 250 249 248 249 254 257 255 254 255 256 257 257 256 256 257 259 261 263 262 262 262 262 262 264 267 270 273 278 281 274 268 268 271 276 278 280 279 277 279 275 270 271 272 272 271 270 270 266 263 265 266 264 267 270 271 275 278 283 288 290 291 295 298
100 312 317 331 313 318 357 116 103 331 55 219 238 272 288 292 115 127 140 172 208 255 265 261 258 258 260 262 262 266 271 267 258 253 251 249 251 254 257 260 260 259 258 259 259 258 258 258 258 259 260 260 260 260 260 260 260 261 264 268 272 276 278 273 266 265 269 272 272 275 276 273 273 270 265 263 266 266 264 265 264 263 262 264 264 262 265 266 267 272 275 277 282 287 290 293 296
56 351 311 305 290 305 307 134 106 47 250 242 233 248 269 270 266 253 200 188 227 262 268 265 263 263 263 265 267 267 270 273 265 258 255 250 253 259 262 263 264 263 262 262 261 260 259 259 259 260 259 257 257 257 257 257 257 258 260 264 269 271 273 270 265 263 266 267 267 269 270 269 269 264 258 257 259 260 260 260 259 259 260 260 261 261 262 263 265 269 272 275 278 282 286 291 295
325 322 311 323 287 256 277 282 77 29 252 256 254 252 267 274 278 278 258 220 236 260 268 270 270 268 267 267 266 267 268 267 266 265 264 257 259 264 266 267 268 267 266 265 264 263 261 260 259 259 259 256 255 253 253 253 253 254 256 260 265 266 266 267 265 262 263 264 263 268 269 267 263 256 252 251 253 256 257 257 257 257 256 257 259 259 260 261 262 264 268 273 277 277 280 287 291
336 316 300 303 296 278 278 287 56 5 281 263 257 262 276 284 288 290 283 249 245 261 265 266 268 265 264 262 261 264 263 263 267 272 272 269 271 273 272 272 271 271 270 268 266 264 262 260 257 257 257 254 252 249 248 247 246 248 250 252 255 258 258 258 259 259 260 259 261 269 270 264 256 249 246 246 248 251 253 255 255 254 254 255 256 256 258 259 259 262 266 272 275 276 279 282 285
79 246 275 273 281 291 288 296 89 75 290 269 258 277 284 286 288 290 294 273 254 257 255 256 258 254 256 255 260 261 259 266 275 283 281 279 281 280 276 275 273 271 271 269 266 264 262 260 256 256 256 252 249 246 244 243 240 239 240 241 244 246 245 244 249 252 253 255 263 273 271 259 250 242 241 243 244 246 250 253 253 253 253 252 252 254 256 258 259 263 267 269 272 275 278 279 281
87 243 283 278 262 279 292 35 126 135 296 276 284 298 288 286 292 294 293 264 252 248 241 249 253 254 259 255 262 264 265 276 281 283 282 282 284 283 278 276 273 271 271 269 267 266 263 260 258 257 255 251 249 246 243 242 241 239 237 239 241 241 238 240 245 244 245 255 267 273 267 253 243 236 237 238 239 243 247 249 251 252 251 249 251 254 254 255 257 260 262 265 268 270 273 277 279
240 241 277 293 288 285 284 126 152 182 263 288 316 311 291 292 304 305 288 245 259 271 250 260 266 260 259 251 259 270 275 280 279 279 281 281 283 284 281 278 276 275 276 273 270 270 265 261 260 258 253 250 250 247 243 242 243 243 243 243 242 242 242 244 249 251 252 258 265 266 259 248 240 233 232 233 236 241 243 246 250 250 248 248 250 253 252 252 254 255 254 259 266 268 270 272 269
226 251 282 295 345 321 280 122 217 254 251 287 301 290 282 293 305 292 229 242 277 288 261 261 265 256 258 267 273 271 270 274 275 277 281 281 282 283 281 281 281 279 279 277 273 270 267 264 263 259 254 251 250 248 246 244 243 244 246 247 246 246 249 249 252 257 257 258 260 257 252 245 237 230 228 229 233 238 241 244 248 248 246 244 246 250 250 249 250 250 249 252 259 265 268 268 263
222 226 255 282 302 292 270 307 314 284 237 273 296 280 261 277 226 187 141 209 258 263 253 250 245 246 257 274 273 259 255 263 272 277 283 288 290 289 288 289 289 285 283 283 280 275 272 271 268 263 258 254 252 250 247 243 240 241 242 243 244 246 248 246 245 248 246 245 248 245 243 240 232 226 226 228 232 236 241 243 245 245 243 240 240 243 246 247 246 245 247 249 251 257 265 271 267
262 213 223 267 291 278 281 308 318 298 226 122 322 308 263 136 231 238 130 260 253 180 229 249 235 234 240 254 260 253 250 253 260 273 286 297 300 301 301 300 297 295 296 294 290 286 282 279 274 267 261 257 254 251 247 242 238 237 235 231 230 231 235 235 234 236 232 230 235 234 234 234 228 225 225 227 231 235 240 243 242 240 237 235 235 238 242 242 243 244 244 245 246 249 257 266 264
301 175 174 178 255 285 297 314 320 307 308 18 350 294 281 275 265 257 53 318 283 208 237 254 241 233 226 239 256 259 261 265 268 280 290 296 299 302 305 307 306 305 307 307 303 298 292 286 280 273 266 261 257 252 247 241 237 235 233 229 228 228 232 235 233 231 229 230 234 232 231 231 227 226 226 228 231 234 238 240 237 233 231 231 231 234 238 239 241 242 240 239 240 242 244 252 256
307 115 137 159 271 293 303 309 286 293 312 306 149 259 274 283 273 91 25 299 273 243 238 240 240 241 235 241 256 266 274 289 304 302 303 303 304 306 307 312 316 316 316 316 313 309 303 295 288 279 272 267 261 256 250 243 238 235 234 231 231 232 235 239 235 230 232 234 235 232 231 230 227 226 227 228 229 232 235 235 231 227 227 228 229 232 235 236 237 237 235 232 233 237 237 241 248
9 119 145 305 295 296 278 277 272 288 307 263 142 127 271 273 231 107 15 275 236 219 220 228 239 244 261 268 268 273 283 303 312 307 309 310 308 310 312 315 321 324 323 322 321 318 312 304 295 286 278 272 265 260 254 248 242 238 235 232 232 234 236 238 236 233 233 232 232 231 229 229 228 226 227 227 228 230 231 231 227 225 225 227 228 230 231 230 230 231 230 227 229 233 232 235 240
87 132 137 127 143 173 198 262 269 241 275 250 115 48 286 291 310 115 177 215 95 327 224 237 250 253 265 271 277 292 328 344 335 318 308 305 305 314 320 321 324 327 328 328 328 324 317 310 301 293 286 278 269 263 258 252 246 240 237 235 233 233 232 232 231 232 232 229 228 228 226 227 227 226 226 226 228 229 229 227 225 224 224 226 227 227 227 225 226 227 226 226 228 230 230 230 233
121 177 233 203 168 149 175 220 243 246 251 153 87 6 309 310 318 357 140 86 61 26 341 316 297 290 279 274 312 349 3 353 335 322 310 306 309 320 324 323 326 331 333 334 333 329 323 315 306 299 294 285 274 268 261 255 249 243 240 239 237 236 231 226 226 228 227 225 225 226 225 226 226 226 226 226 228 228 226 224 223 223 224 225 226 225 224 224 223 223 223 226 227 226 229 229 231
213 241 277 274 233 171 182 179 180 255 277 100 91 317 285 269 274 313 307 277 181 230 303 313 319 327 331 337 351 359 351 335 325 315 309 310 315 323 325 325 328 333 337 338 336 333 327 320 312 303 299 293 280 272 266 258 252 246 244 242 240 239 234 228 229 229 226 223 224 225 223 224 225 226 226 226 226 223 222 222 221 223 224 225 224 222 222 221 220 221 221 223 225 223 225 227 230
236 264 292 298 303 285 263 265 219 261 325 103 99 335 271 251 269 286 286 287 264 218 265 321 339 335 333 335 338 342 333 322 317 310 310 313 317 323 326 328 331 333 335 336 335 333 329 324 317 305 303 301 288 277 271 263 256 251 247 243 241 240 236 233 233 233 230 226 224 222 220 221 222 223 224 224 224 219 218 219 218 220 222 223 222 220 219 218 218 220 221 222 223 221 221 223 227
244 283 308 306 325 318 294 300 277 276 325 122 107 3 275 260 275 276 283 307 333 26 348 344 343 326 322 324 322 318 312 307 308 309 314 317 320 324 326 329 332 332 333 332 331 332 329 325 321 310 307 306 295 283 277 268 261 256 251 246 243 241 238 236 235 234 231 227 225 222 219 220 221 222 224 224 223 219 218 218 217 219 221 220 219 218 218 218 218 220 222 222 222 221 221 221 224
264 21 327 285 299 294 291 314 298 293 321 229 146 192 247 250 349 316 292 314 336 40 36 347 315 299 303 300 296 300 304 310 316 319 321 322 324 327 329 333 335 335 333 332 331 331 328 325 322 315 311 310 301 289 282 274 268 262 254 249 247 244 241 238 236 236 233 228 227 224 220 219 221 223 225 225 223 219 218 219 218 219 220 219 219 218 217 217 218 220 222 222 221 221 220 220 222
109 101 273 264 294 279 277 325 315 314 317 265 205 231 236 258 310 306 299 320 42 78 60 2 342 336 306 305 317 324 323 326 326 325 326 327 328 331 336 341 341 337 335 333 332 331 329 326 322 318 314 313 307 297 288 281 275 267 259 254 251 247 243 240 237 236 234 231 230 228 225 221 220 221 223 224 223 220 219 218 219 220 219 219 219 218 218 217 216 219 221 221 219 219 218 218 220
139 199 250 92 28 304 262 276 85 164 267 252 225 261 261 293 290 276 16 17 43 38 10 356 350 348 343 338 340 337 333 331 330 330 331 331 335 340 345 345 340 336 333 331 330 329 327 325 322 319 317 315 312 306 298 289 281 273 266 260 255 249 244 242 240 237 234 232 233 232 227 223 222 220 219 221 222 221 220 218 219 221 220 220 220 218 217 216 216 218 219 220 219 218 219 219 219
239 224 85 98 317 305 254 275 258 224 256 244 221 268 288 329 289 25 19 11 21 13 355 350 351 352 349 345 342 338 335 333 331 333 334 335 339 345 347 342 336 333 330 327 327 326 325 324 323 320 317 317 316 312 305 299 289 280 273 267 261 255 249 246 243 239 233 231 233 232 228 224 223 220 218 219 220 220 220 220 220 222 221 221 220 219 217 216 216 217 219 221 221 219 219 219 220
331 316 94 84 263 233 181 272 290 278 276 265 226 270 282 250 227 353 3 11 10 358 351 348 346 348 345 340 338 336 335 332 332 334 334 336 342 346 343 336 333 332 328 325 324 324 324 325 324 321 320 320 320 317 313 307 298 288 281 275 269 261 255 251 246 240 234 231 231 231 230 227 223 219 217 217 217 219 220 220 221 223 223 223 221 219 217 215 215 216 218 221 221 219 219 220 219
65 193 164 43 295 274 266 296 305 287 285 289 282 291 283 212 158 353 359 16 3 347 346 343 338 339 339 336 335 334 333 331 331 331 331 338 344 344 338 333 330 329 327 326 325 325 326 326 326 326 325 323 321 319 316 311 305 296 287 281 274 266 260 254 247 240 235 233 232 230 230 229 223 220 219 214 215 218 219 221 222 224 224 224 222 220 219 217 215 215 217 219 219 217 219 221 220
159 191 196 178 184 281 295 253 251 282 281 288 281 276 283 150 133 344 8 20 355 341 343 338 334 335 336 335 333 332 329 327 328 328 332 341 342 337 332 329 328 326 326 327 327 327 328 329 329 328 327 325 322 319 316 312 309 302 292 284 277 270 262 254 247 241 236 235 234 232 232 231 226 225 221 214 215 219 221 222 224 225 225 224 223 222 219 216 215 215 216 218 217 217 220 222 222
206 225 224 208 183 201 269 258 176 162 269 281 282 281 286 152 163 335 31 12 346 347 345 336 332 333 334 333 332 330 326 324 326 328 334 340 334 330 329 328 327 327 327 328 330 331 331 332 332 330 326 322 319 318 316 313 310 303 298 292 284 273 263 255 248 241 235 234 235 235 234 231 229 227 222 215 216 219 222 223 224 226 226 225 225 224 221 217 217 217 217 217 218 220 223 224 223